Weather History for Novato, CA

Change the Weather History Date:

Friday, August 2, 2013

  Actual Average (KAPC) Record (KAPC)
Temperature  
Mean Temperature 66 °F 65 °F  
Max Temperature 84 °F 78 °F 95 °F (1998)
Min Temperature 48 °F 52 °F 45 °F (2013)
Degree Days  
Heating Degree Days 0    
Month to date heating degree days  
Since 1 June heating degree days  
Since 1 July heating degree days  
Cooling Degree Days 1    
Month to date cooling degree days  
Year to date cooling degree days  
Since 1 June cooling degree days  
Growing Degree Days 16 (Base 50)    
Moisture  
Dew Point 51 °F    
Average Humidity 71    
Maximum Humidity 100    
Minimum Humidity 34    
Precipitation  
Precipitation 0.00 in - 0.00 in (2014)
Month to date precipitation  
Year to date precipitation  
Since 1 July precipitation  
Sea Level Pressure  
Sea Level Pressure 29.94 in    
Wind  
Wind Speed 3 mph (SE)    
Max Wind Speed 14 mph    
Max Gust Speed 18 mph    
Visibility 10 miles    
Events Rain    
T = Trace of Precipitation, MM = Missing Value Source: NWS Daily Summary

Daily Weather History Graph

Daily Weather History Graph

Search for Another Location

Airport:

Trip Planner

Search our weather history database for the weather conditions in past years. The results will help you decide how hot, cold, wet, or windy it might be!

Date:

Astronomy

Aug. 02, 2013 Rise Set
Actual Time 6:14 AM PDT 8:18 PM PDT
Civil Twilight 5:44 AM PDT 8:47 PM PDT
Nautical Twilight 5:09 AM PDT 9:22 PM PDT
Astronomical Twilight 4:30 AM PDT 10:01 PM PDT
Moon 2:39 AM PDT (8/2) 5:19 PM PDT (8/2)
Length of Visible Light 15h 02m
Length of Day
14h 04m
Waning Crescent, 15% of the Moon is Illuminated
Aug 2
Waning Crescent
Aug 6
New
Aug 14
First Quarter
Aug 20
Full
Aug 28
Last Quarter

Hourly Weather History & Observations

Time (PDT) Temp. Heat Index Dew Point Humidity Pressure Visibility Wind Dir Wind Speed Gust Speed Precip Events Conditions
12:15 AM 53.6 °F - 50.0 °F 88% 29.97 in 10.0 mi NW 3.5 mph - N/A   Clear
12:35 AM 53.6 °F - 51.8 °F 94% 29.97 in 10.0 mi NNW 3.5 mph - N/A   Clear
12:55 AM 50.0 °F - 50.0 °F 100% 29.96 in 10.0 mi Calm Calm - N/A   Clear
1:15 AM 53.6 °F - 51.8 °F 94% 29.96 in 10.0 mi Calm Calm - N/A   Clear
1:35 AM 50.0 °F - 50.0 °F 100% 29.95 in 10.0 mi Calm Calm - N/A   Clear
1:55 AM 50.0 °F - 50.0 °F 100% 29.95 in 10.0 mi Calm Calm - N/A   Clear
2:15 AM 50.0 °F - 50.0 °F 100% 29.95 in 10.0 mi Calm Calm - N/A   Clear
2:35 AM 50.0 °F - 50.0 °F 100% 29.95 in 10.0 mi South 4.6 mph - N/A   Clear
2:55 AM 53.6 °F - 53.6 °F 100% 29.95 in 10.0 mi Calm Calm - N/A   Clear
3:15 AM 48.2 °F - 48.2 °F 100% 29.95 in 10.0 mi NNW 3.5 mph - N/A   Clear
3:35 AM 48.2 °F - 48.2 °F 100% 29.94 in 10.0 mi Calm Calm - N/A   Clear
3:55 AM 48.2 °F - 48.2 °F 100% 29.94 in 10.0 mi Calm Calm - N/A   Clear
4:15 AM 50.0 °F - 50.0 °F 100% 29.94 in 10.0 mi Calm Calm - N/A   Clear
4:35 AM 50.0 °F - 50.0 °F 100% 29.94 in 10.0 mi Calm Calm - N/A   Clear
4:55 AM 50.0 °F - 50.0 °F 100% 29.94 in 10.0 mi Calm Calm - N/A   Clear
5:35 AM 48.2 °F - 48.2 °F 100% 29.95 in 10.0 mi Calm Calm - N/A   Clear
5:55 AM 48.2 °F - 48.2 °F 100% 29.96 in 10.0 mi Calm Calm - N/A   Clear
6:15 AM 50.0 °F - 50.0 °F 100% 29.96 in 10.0 mi Calm Calm - N/A   Clear
6:35 AM 48.2 °F - 48.2 °F 100% 29.97 in 10.0 mi Calm Calm - N/A   Clear
6:55 AM 50.0 °F - 50.0 °F 100% 29.97 in 10.0 mi South 4.6 mph - N/A   Clear
7:15 AM 51.8 °F - 51.8 °F 100% 29.97 in 10.0 mi Calm Calm - N/A   Clear
7:35 AM 51.8 °F - 51.8 °F 100% 29.98 in 10.0 mi Calm Calm - N/A   Clear
7:55 AM 53.6 °F - 53.6 °F 100% 29.98 in 10.0 mi Calm Calm - N/A   Clear
8:15 AM 55.4 °F - 51.8 °F 88% 29.98 in 10.0 mi Calm Calm - N/A   Clear
8:35 AM 57.2 °F - 51.8 °F 82% 29.98 in 10.0 mi Calm Calm - N/A   Clear
8:55 AM 59.0 °F - 51.8 °F 77% 29.99 in 10.0 mi NE 3.5 mph - N/A   Clear
9:15 AM 60.8 °F - 51.8 °F 72% 29.99 in 10.0 mi Calm Calm - N/A   Clear
9:35 AM 62.6 °F - 53.6 °F 72% 29.98 in 10.0 mi Calm Calm - N/A   Clear
9:55 AM 64.4 °F - 51.8 °F 64% 29.98 in 10.0 mi Calm Calm - N/A   Clear
10:15 AM 66.2 °F - 51.8 °F 60% 29.98 in 10.0 mi Calm Calm - N/A   Clear
10:35 AM 66.2 °F - 51.8 °F 60% 29.97 in 10.0 mi NE 4.6 mph - N/A   Clear
10:55 AM 69.8 °F - 53.6 °F 56% 29.97 in 10.0 mi ESE 4.6 mph - N/A   Clear
11:15 AM 68.0 °F - 55.4 °F 64% 29.97 in - ESE 8.1 mph - N/A   Clear
11:35 AM 69.8 °F - 55.4 °F 60% 29.97 in 10.0 mi ESE 8.1 mph - N/A   Clear
11:55 AM 69.8 °F - 55.4 °F 60% 29.96 in 10.0 mi SE 4.6 mph - N/A   Clear
12:15 PM 71.6 °F - 53.6 °F 53% 29.96 in 10.0 mi SE 5.8 mph - N/A   Clear
12:35 PM 73.4 °F - 53.6 °F 50% 29.96 in - East 5.8 mph - N/A   Clear
12:55 PM 75.2 °F - 55.4 °F 50% 29.95 in - ESE 5.8 mph - N/A Rain Light Rain
1:15 PM 75.2 °F - 55.4 °F 50% 29.94 in - East 8.1 mph - N/A   Clear
1:35 PM 77.0 °F - 55.4 °F 47% 29.94 in - East 9.2 mph - N/A   Clear
1:55 PM 77.0 °F - 55.4 °F 47% 29.93 in - SE 9.2 mph - N/A   Clear
2:15 PM 78.8 °F - 55.4 °F 44% 29.93 in - ESE 8.1 mph - N/A   Clear
2:35 PM 80.6 °F 80.5 °F 55.4 °F 42% 29.92 in - ESE 8.1 mph - N/A   Clear
2:55 PM 82.4 °F 81.4 °F 53.6 °F 37% 29.91 in - SSE 5.8 mph - N/A Rain Light Rain
3:15 PM 82.4 °F 81.4 °F 53.6 °F 37% 29.91 in - SE 4.6 mph - N/A Rain Light Rain
3:35 PM 82.4 °F 81.4 °F 53.6 °F 37% 29.90 in - SW 10.4 mph - N/A   Clear
3:55 PM 84.2 °F 82.8 °F 53.6 °F 35% 29.89 in - NE 11.5 mph - N/A   Clear
4:15 PM 82.4 °F 81.7 °F 55.4 °F 39% 29.89 in - East 5.8 mph - N/A   Clear
4:35 PM 82.4 °F - 51.8 °F 35% 29.89 in - WSW 8.1 mph - N/A   Clear
4:55 PM 82.4 °F - 51.8 °F 35% 29.89 in - East 6.9 mph - N/A   Clear
5:15 PM 80.6 °F - 50.0 °F 34% 29.89 in - SW 5.8 mph - N/A   Clear
5:35 PM 77.0 °F - 48.2 °F 36% 29.89 in - SW 9.2 mph - N/A   Clear
5:55 PM 77.0 °F - 50.0 °F 39% 29.89 in - WSW 13.8 mph - N/A   Clear
6:15 PM 75.2 °F - 50.0 °F 41% 29.89 in - SW 11.5 mph 18.4 mph N/A   Clear
6:35 PM 73.4 °F - 50.0 °F 44% 29.89 in - SSW 8.1 mph - N/A   Clear
6:55 PM 73.4 °F - 50.0 °F 44% 29.89 in - Calm Calm - N/A   Clear
7:15 PM 73.4 °F - 50.0 °F 44% 29.89 in - SSE 3.5 mph - N/A   Clear
7:35 PM 71.6 °F - 50.0 °F 46% 29.89 in - SSW 3.5 mph - N/A   Clear
7:55 PM 68.0 °F - 50.0 °F 52% 29.89 in - SSE 3.5 mph - N/A   Clear
8:15 PM 64.4 °F - 50.0 °F 59% 29.90 in 10.0 mi South 6.9 mph - N/A   Clear
8:35 PM 64.4 °F - 50.0 °F 59% 29.90 in 10.0 mi Calm Calm - N/A   Clear
8:55 PM 57.2 °F - 48.2 °F 72% 29.91 in 10.0 mi Calm Calm - N/A   Clear
9:15 PM 59.0 °F - 50.0 °F 72% 29.91 in 10.0 mi SW 3.5 mph - N/A   Clear
9:35 PM 57.2 °F - 48.2 °F 72% 29.92 in 10.0 mi Calm Calm - N/A   Clear
9:55 PM 57.2 °F - 50.0 °F 77% 29.92 in 10.0 mi Calm Calm - N/A   Clear
10:15 PM 53.6 °F - 48.2 °F 82% 29.93 in 10.0 mi Calm Calm - N/A   Clear
10:35 PM 55.4 °F - 50.0 °F 82% 29.93 in 10.0 mi ESE 3.5 mph - N/A   Clear
10:55 PM 55.4 °F - 51.8 °F 88% 29.93 in 10.0 mi East 3.5 mph - N/A   Clear
11:15 PM 55.4 °F - 51.8 °F 88% 29.93 in 10.0 mi ESE 3.5 mph - N/A   Clear
11:35 PM 55.4 °F - 51.8 °F 88% 29.93 in 10.0 mi Calm Calm - N/A   Clear
11:55 PM 55.4 °F - 51.8 °F 88% 29.93 in 10.0 mi South 3.5 mph - N/A   Clear